Find Starlink 11298

NORAD ID: 61211 Int'l Des: 2024-171 Owner: SPXS Country: US Constellation: starlink operational
LEOCIRCULAR

Live Position

Loading 3D Globe...

About Starlink 11298

Description loading...

Upcoming Passes

Passes for default location (London). Set your location on the main map for personalized predictions.

Altitude History

Loading altitude history...

Two-Line Element Set

1 61211U 24171M 26124.64890858 -.00002757 00000-0 -17924-4 0 9999
2 61211 53.1591 260.6995 0000816 66.8112 293.2992 15.69696919 93181
Epoch: May 4, 2026 • Age: 21 hours

Current Status

Altitude 361.3 km
Velocity 7.69 km/s
Sub-Earth Point -2.62°S, 31.79°E
Launch Date Sep 20, 2024
Age 1.6 years
Type internet

Technical Details

Classification Payload
Mass 960.00 kg
Dry Mass 910.00 kg
Total Mass 960.00 kg
Length 0.30 m
Diameter 4.10 m
Span 29.00 m
Shape Box + pan
Manufacturer SPXS
Bus Type Starlink V2MD
Phase Status In Orbit
Owner/State SPXS/US

Most Searched